World > North America > United States > Utah   City of Park City, UT

Park City, Utah Regional Weather

Lat: 40.66N, Lon: 111.49W
Wx Zone: UTZ006
Warning NWS WEATHER ALERT - (More Info. Click Here) Warning
Feedback

Park City, UT Regional Weather

Expires:202007101300;;622318
ASUS45 KSLC 101210
RWRUT 

UTAH REGIONAL WEATHER ROUNDUP
NATIONAL WEATHER SERVICE SALT LAKE CITY UT
600 AM MDT FRI JUL 10 2020


UTZ001>011-023>025-101300-

NORTHERN UTAH
  
CITY           SKY/WX    TMP DP  RH WIND       PRES   REMARKS
BRIGHAM CITY   CLEAR     58  44  58 E6        30.05R                  
HILL AFB       CLEAR     65  29  25 E12       30.08R                  
LOGAN          CLEAR     53  43  68 W7        30.06R                  
OGDEN          CLEAR     65  31  28 S12       30.05R                  
SALT LAKE CITY CLEAR     79  20  11 S13       30.03R                  
TOOELE VALLEY  CLEAR     73  30  20 SW9       30.05R                  
WENDOVER       CLEAR     70  24  17 MISG      30.05R                  
HEBER CITY       N/A     43  34  70 SE3       30.17R                  
WEST JORDAN    CLEAR     75  31  20 S13       30.08R                  

$$


SKY/WX - Weather  TMP - Temperature  DP - Dew Point  RH - Relative Humidity
WIND - Wind Direction/Speed PRES - Barometric Pressure VSB - Visibility
WCI - Wind Chill Index E13G22 Wind - East Wind 13 mph/Gusts of 22 mph
Park City Weather Map
UTC Time: 7/10/2020, 12:55
Your Time: